When you browse on this site, cookies collect data to enhance your experience and personalize the content and advertising you see.
Visit our Privacy Policy to learn more. By continuing to use the site, you agree to this use of cookies and data.
  • In Hungary
  • List of Countries
  • For 7 days
  • Water Temperature
  • Satellite Maps
  • Weather Map
  • News
  • Weather Widgets
  • user-avatar
    Login

    Hourly Weather Aleppo

    Today, 10 December, Monday

    Time Temperature Precipitation Wind Pressure Humidity
    00:00 +12°C° 0 mm 1 mps 725 mmHg 85%
    01:00 +12°C° 0 mm 1 mps 725 mmHg 86%
    02:00 +12°C° 0 mm 2 mps 725 mmHg 86%
    03:00 +12°C° 0 mm 2 mps 725 mmHg 86%
    04:00 +10°C° 0 mm 2 mps 725 mmHg 86%
    05:00 +10°C° 0 mm 2 mps 725 mmHg 86%
    06:00 +12°C° 0 mm 2 mps 725 mmHg 84%
    07:00 +12°C° 0 mm 2 mps 725 mmHg 82%
    08:00 +13°C° 0 mm 2 mps 724 mmHg 80%
    09:00 +13°C° 0 mm 3 mps 724 mmHg 74%
    10:00 +14°C° 0 mm 3 mps 724 mmHg 68%
    11:00 +15°C° 0 mm 4 mps 724 mmHg 62%
    12:00 +15°C° 0 mm 4 mps 724 mmHg 61%
    13:00 +17°C° 0 mm 4 mps 724 mmHg 59%
    14:00 +17°C° 0 mm 4 mps 723 mmHg 57%
    15:00 +15°C° 0.2 mm 4 mps 723 mmHg 62%
    16:00 +16°C° 0.2 mm 3 mps 723 mmHg 67%
    17:00 +15°C° 0.2 mm 2 mps 723 mmHg 73%
    18:00 +15°C° 0.3 mm 2 mps 723 mmHg 76%
    19:00 +14°C° 0.3 mm 2 mps 723 mmHg 79%
    20:00 +14°C° 0.3 mm 2 mps 723 mmHg 81%
    21:00 +14°C° 0.3 mm 2 mps 723 mmHg 82%
    22:00 +14°C° 0.3 mm 2 mps 723 mmHg 83%
    23:00 +13°C° 0.3 mm 2 mps 723 mmHg 84%

    Tomorrow, 11 December, Tuesday

    Time Temperature Precipitation Wind Pressure Humidity
    00:00 +13°C° 0.5 mm 2 mps 723 mmHg 84%
    01:00 +13°C° 0.5 mm 2 mps 722 mmHg 83%
    02:00 +13°C° 0.5 mm 2 mps 722 mmHg 83%
    03:00 +12°C° 0.9 mm 3 mps 722 mmHg 81%
    04:00 +12°C° 0.9 mm 4 mps 721 mmHg 80%
    05:00 +12°C° 0.9 mm 4 mps 721 mmHg 78%
    06:00 +13°C° 0.2 mm 5 mps 721 mmHg 76%
    07:00 +13°C° 0.2 mm 5 mps 721 mmHg 74%
    08:00 +13°C° 0.2 mm 6 mps 721 mmHg 73%
    09:00 +14°C° 1.4 mm 7 mps 721 mmHg 73%
    10:00 +14°C° 1.4 mm 7 mps 721 mmHg 73%
    11:00 +15°C° 1.4 mm 8 mps 721 mmHg 72%
    12:00 +15°C° 1.1 mm 8 mps 721 mmHg 74%
    13:00 +14°C° 1.1 mm 7 mps 721 mmHg 75%
    14:00 +14°C° 1.1 mm 6 mps 721 mmHg 77%
    15:00 +14°C° 0.1 mm 5 mps 721 mmHg 77%
    16:00 +13°C° 0.1 mm 5 mps 721 mmHg 77%
    17:00 +13°C° 0.1 mm 4 mps 722 mmHg 77%
    18:00 +13°C° 0 mm 4 mps 722 mmHg 78%
    19:00 +12°C° 0 mm 3 mps 722 mmHg 79%
    20:00 +12°C° 0 mm 3 mps 723 mmHg 80%
    21:00 +12°C° 0 mm 3 mps 723 mmHg 81%
    22:00 +12°C° 0 mm 3 mps 723 mmHg 82%
    23:00 +12°C° 0 mm 3 mps 723 mmHg 83%

    Day after tomorrow, 12 December, Wednesday

    Time Temperature Precipitation Wind Pressure Humidity
    00:00 +11°C° 0.1 mm 3 mps 722 mmHg 85%
    01:00 +11°C° 0.1 mm 3 mps 722 mmHg 87%
    02:00 +11°C° 0.1 mm 3 mps 722 mmHg 88%
    03:00 +11°C° 1.1 mm 4 mps 721 mmHg 89%
    04:00 +12°C° 1.1 mm 5 mps 721 mmHg 89%
    05:00 +11°C° 1.1 mm 6 mps 720 mmHg 90%
    06:00 +13°C° 0.8 mm 6 mps 720 mmHg 87%
    07:00 +12°C° 0.8 mm 7 mps 721 mmHg 85%
    08:00 +12°C° 0.8 mm 8 mps 721 mmHg 82%
    09:00 +13°C° 0.3 mm 8 mps 721 mmHg 76%
    10:00 +15°C° 0.3 mm 9 mps 721 mmHg 70%
    11:00 +14°C° 0.3 mm 10 mps 720 mmHg 64%
    12:00 +14°C° 0.4 mm 10 mps 720 mmHg 67%
    13:00 +13°C° 0.4 mm 10 mps 720 mmHg 69%
    14:00 +13°C° 0.4 mm 10 mps 720 mmHg 72%
    15:00 +12°C° 0.1 mm 9 mps 720 mmHg 70%
    16:00 +12°C° 0.1 mm 8 mps 720 mmHg 68%
    17:00 +11°C° 0.1 mm 7 mps 720 mmHg 65%
    18:00 +11°C° 0 mm 7 mps 721 mmHg 65%
    19:00 +10°C° 0 mm 8 mps 721 mmHg 65%
    20:00 +10°C° 0 mm 8 mps 722 mmHg 65%
    21:00 +10°C° 0 mm 8 mps 722 mmHg 66%
    22:00 +10°C° 0 mm 7 mps 723 mmHg 67%
    23:00 +9°C° 0 mm 7 mps 723 mmHg 68%

    13 December, Thursday

    Time Temperature Precipitation Wind Pressure Humidity
    00:00 +9°C° 0 mm 6 mps 724 mmHg 69%
    01:00 +9°C° 0 mm 5 mps 724 mmHg 70%
    02:00 +8°C° 0 mm 4 mps 724 mmHg 70%
    03:00 +8°C° 0 mm 4 mps 725 mmHg 71%
    04:00 +8°C° 0 mm 3 mps 725 mmHg 71%
    05:00 +8°C° 0 mm 3 mps 725 mmHg 72%
    06:00 +8°C° 0 mm 2 mps 726 mmHg 70%
    07:00 +9°C° 0 mm 2 mps 726 mmHg 68%
    08:00 +10°C° 0 mm 1 mps 727 mmHg 66%
    09:00 +10°C° 0 mm 2 mps 727 mmHg 59%
    10:00 +11°C° 0 mm 3 mps 727 mmHg 52%
    11:00 +13°C° 0 mm 3 mps 727 mmHg 45%
    12:00 +13°C° 0 mm 3 mps 727 mmHg 44%
    13:00 +13°C° 0 mm 3 mps 727 mmHg 43%
    14:00 +13°C° 0 mm 4 mps 727 mmHg 41%
    15:00 +12°C° 0 mm 3 mps 727 mmHg 45%
    16:00 +12°C° 0 mm 2 mps 728 mmHg 49%
    17:00 +10°C° 0 mm 2 mps 728 mmHg 53%
    18:00 +11°C° 0 mm 1 mps 728 mmHg 55%
    19:00 +10°C° 0 mm 1 mps 728 mmHg 57%
    20:00 +10°C° 0 mm 1 mps 729 mmHg 59%
    21:00 +10°C° 0 mm 1 mps 729 mmHg 59%
    22:00 +8°C° 0 mm 0 mps 729 mmHg 59%
    23:00 +8°C° 0 mm 0 mps 729 mmHg 60%

    14 December, Friday

    Time Temperature Precipitation Wind Pressure Humidity
    00:00 +8°C° 0 mm 0 mps 729 mmHg 61%
    01:00 +8°C° 0 mm 0 mps 729 mmHg 61%
    02:00 +8°C° 0 mm 0 mps 729 mmHg 62%
    03:00 +7°C° 0 mm 0 mps 729 mmHg 62%
    04:00 +7°C° 0 mm 0 mps 729 mmHg 62%
    05:00 +7°C° 0 mm 0 mps 729 mmHg 62%
    06:00 +8°C° 0 mm 0 mps 730 mmHg 61%
    07:00 +9°C° 0 mm 1 mps 730 mmHg 59%
    08:00 +10°C° 0 mm 1 mps 730 mmHg 57%
    09:00 +11°C° 0 mm 1 mps 730 mmHg 56%
    10:00 +12°C° 0 mm 1 mps 730 mmHg 54%
    11:00 +13°C° 0 mm 1 mps 730 mmHg 53%
    12:00 +13°C° 0 mm 1 mps 730 mmHg 53%
    13:00 +14°C° 0 mm 2 mps 729 mmHg 54%
    14:00 +14°C° 0 mm 2 mps 729 mmHg 55%
    15:00 +14°C° 0 mm 2 mps 729 mmHg 59%
    16:00 +13°C° 0 mm 1 mps 729 mmHg 63%
    17:00 +12°C° 0 mm 1 mps 729 mmHg 67%
    18:00 +12°C° 0 mm 1 mps 730 mmHg 69%
    19:00 +11°C° 0 mm 0 mps 730 mmHg 71%
    20:00 +10°C° 0 mm 0 mps 730 mmHg 72%
    21:00 +10°C° 0 mm 0 mps 730 mmHg 73%
    22:00 +10°C° 0 mm 0 mps 730 mmHg 75%
    23:00 +10°C° 0 mm 0 mps 730 mmHg 76%

    15 December, Saturday

    Time Temperature Precipitation Wind Pressure Humidity
    00:00 +9°C° 0 mm 0 mps 730 mmHg 77%
    01:00 +9°C° 0 mm 0 mps 730 mmHg 77%
    02:00 +10°C° 0 mm 1 mps 730 mmHg 78%
    03:00 +10°C° 0 mm 1 mps 730 mmHg 77%
    04:00 +10°C° 0 mm 1 mps 730 mmHg 77%
    05:00 +9°C° 0 mm 2 mps 730 mmHg 77%
    06:00 +9°C° 0 mm 2 mps 730 mmHg 75%
    07:00 +9°C° 0 mm 2 mps 730 mmHg 74%
    08:00 +9°C° 0 mm 2 mps 731 mmHg 72%
    09:00 +12°C° 0 mm 2 mps 731 mmHg 68%
    10:00 +13°C° 0 mm 2 mps 731 mmHg 64%
    11:00 +13°C° 0 mm 3 mps 731 mmHg 61%
    12:00 +13°C° 0 mm 3 mps 730 mmHg 59%
    13:00 +14°C° 0 mm 3 mps 730 mmHg 58%
    14:00 +14°C° 0 mm 3 mps 729 mmHg 57%
    15:00 +14°C° 0 mm 3 mps 729 mmHg 60%
    16:00 +13°C° 0 mm 3 mps 729 mmHg 64%
    17:00 +12°C° 0 mm 3 mps 729 mmHg 67%
    18:00 +12°C° 0 mm 3 mps 730 mmHg 68%
    19:00 +11°C° 0 mm 3 mps 730 mmHg 70%
    20:00 +11°C° 0 mm 3 mps 730 mmHg 71%
    21:00 +10°C° 0 mm 3 mps 730 mmHg 72%
    22:00 +10°C° 0 mm 3 mps 730 mmHg 73%
    23:00 +10°C° 0 mm 3 mps 730 mmHg 73%
    Show more